Fort Polk, LA

12:35 AM CST on January 23, 2018 (GMT -0600)
Polk Army Air Field

Weather History for KPOE - November, 2012

Change the Weather History Date:

Tuesday, November 13, 2012

  Actual Average Record
Temperature  
Mean Temperature 47 °F -  
Max Temperature 57 °F 66 °F 82 °F (2005)
Min Temperature 37 °F 47 °F 30 °F (2013)
Degree Days  
Heating Degree Days 18    
Moisture  
Dew Point 30 °F    
Average Humidity 56    
Maximum Humidity 76    
Minimum Humidity 33    
Precipitation  
Precipitation 0.00 in - - ()
Sea Level Pressure  
Sea Level Pressure 30.42 in    
Wind  
Wind Speed 7 mph (NNE)    
Max Wind Speed 13 mph    
Max Gust Speed 20 mph    
Visibility 10 miles    
Events      
Averages and records for this station are not official NWS values.
T = Trace of Precipitation, MM = Missing Value Source: NWS Daily Summary

Daily Weather History Graph

Daily Weather History Graph

Search for Another Location

Airport or City:

Trip Planner

Search our weather history database for the weather conditions in past years. The results will help you decide how hot, cold, wet, or windy it might be!

Date:

Astronomy

Nov. 13, 2012 Rise Set
Actual Time 6:38 AM CST 5:15 PM CST
Civil Twilight 6:12 AM CST 5:41 PM CST
Nautical Twilight 5:43 AM CST 6:10 PM CST
Astronomical Twilight 5:15 AM CST 6:38 PM CST
Moon 6:16 AM CST (11/13) 5:10 PM CST (11/13)
Length of Visible Light 11h 28m
Length of Day
10h 37m
Waning Crescent, 0% of the Moon is Illuminated
Nov 13
Waning Crescent
Nov 13
New
Nov 20
First Quarter
Nov 28
Full
Dec 6
Last Quarter

Hourly Weather History & Observations

Time (CST) Temp. Windchill Dew Point Humidity Pressure Visibility Wind Dir Wind Speed Gust Speed Precip Events Conditions
12:55 AM 39.9 °F 35.1 °F 30.9 °F 70% 30.46 in 10.0 mi NNE 6.9 mph - N/A   Clear
1:55 AM 39.0 °F 35.7 °F 30.9 °F 73% 30.46 in 10.0 mi NNE 4.6 mph - N/A   Clear
2:55 AM 37.0 °F 32.4 °F 30.0 °F 76% 30.47 in 10.0 mi North 5.8 mph - N/A   Clear
3:55 AM 37.9 °F 33.5 °F 28.9 °F 70% 30.47 in 10.0 mi NNE 5.8 mph - N/A   Clear
4:55 AM 37.9 °F 32.7 °F 28.9 °F 70% 30.47 in 10.0 mi NNE 6.9 mph - N/A   Clear
5:55 AM 37.0 °F 32.4 °F 28.9 °F 73% 30.48 in 10.0 mi NNE 5.8 mph - N/A   Clear
6:55 AM 37.0 °F 33.3 °F 28.9 °F 73% 30.50 in 10.0 mi NNE 4.6 mph - N/A   Clear
7:55 AM 39.9 °F 35.8 °F 28.9 °F 65% 30.51 in 10.0 mi NNE 5.8 mph - N/A   Clear
8:55 AM 45.0 °F 41.2 °F 28.9 °F 53% 30.51 in 10.0 mi NE 6.9 mph - N/A   Clear
9:55 AM 48.9 °F - 28.0 °F 44% 30.50 in 10.0 mi NE 12.7 mph 18.4 mph N/A   Clear
10:55 AM 52.0 °F - 28.9 °F 41% 30.46 in 10.0 mi ENE 12.7 mph 19.6 mph N/A   Clear
11:55 AM 55.0 °F - 28.0 °F 35% 30.41 in 10.0 mi East 6.9 mph 16.1 mph N/A   Clear
12:55 PM 54.0 °F - 26.1 °F 34% 30.38 in 10.0 mi North 11.5 mph - N/A   Clear
1:55 PM 57.0 °F - 28.0 °F 33% 30.37 in 10.0 mi North 8.1 mph - N/A   Clear
2:55 PM 55.9 °F - 28.0 °F 34% 30.36 in 10.0 mi North 8.1 mph - N/A   Clear
3:55 PM 55.0 °F - 28.9 °F 37% 30.36 in 10.0 mi NNE 8.1 mph - N/A   Clear
4:55 PM 53.1 °F - 30.9 °F 43% 30.35 in 10.0 mi North 5.8 mph - N/A   Clear
5:55 PM 50.0 °F - 32.0 °F 50% 30.36 in 10.0 mi Calm Calm - N/A   Clear
6:55 PM 46.0 °F 44.8 °F 36.0 °F 68% 30.36 in 10.0 mi North 3.5 mph - N/A   Clear
7:55 PM 46.0 °F 43.9 °F 33.1 °F 61% 30.37 in 10.0 mi North 4.6 mph - N/A   Clear
8:55 PM 46.0 °F 43.1 °F 32.0 °F 58% 30.38 in 10.0 mi NNE 5.8 mph - N/A   Clear
9:55 PM 46.0 °F 43.9 °F 30.9 °F 56% 30.37 in 10.0 mi ENE 4.6 mph - N/A   Clear
10:55 PM 45.0 °F 41.8 °F 32.0 °F 60% 30.37 in 10.0 mi NE 5.8 mph - N/A   Clear
11:55 PM 46.0 °F 43.1 °F 30.9 °F 56% 30.36 in 10.0 mi ENE 5.8 mph - N/A   Clear